Overview Statistics Trail Chart Weather Telemetry Raw packets
 

This is the latest recevied weather packets stored in our database for station/object IU5JAE-13. If no packets are shown the sender has not sent any weather packets the latest 10 day(s).

<< 48 49 50 51 52 53 54 >>
Time Temp. Humidity Pressure Rain* Wind** Luminosity Snow
1787971222 21.11° C 81% 1016.9 hPa 0 mm - 0 W/m² -
1787970620 21.11° C 81% 1016.7 hPa 0 mm - 0 W/m² -
1787970018 21.11° C 77% 1016.5 hPa 0 mm - 0 W/m² -
1787969435 21.11° C 76% 1016.2 hPa 0 mm - 0 W/m² -
1787968833 21.67° C 76% 1016 hPa 0 mm - 0 W/m² -
1787968230 21.67° C 80% 1016 hPa 0 mm - 0 W/m² -
1787967628 21.67° C 82% 1016.1 hPa 0 mm - 0 W/m² -
1787967026 21.67° C 82% 1016.3 hPa 0 mm - 0 W/m² -
1787966423 22.22° C 81% 1016.3 hPa 0 mm - 0 W/m² -
1787965821 22.22° C 78% 1016.4 hPa 0 mm - 0 W/m² -
1787965219 22.22° C 81% 1016.4 hPa 0 mm - 0 W/m² -
1787964616 22.78° C 77% 1016.6 hPa 0 mm - 0 W/m² -
1787964034 22.78° C 90% 1016.8 hPa 0 mm - 0 W/m² -
1787963432 22.78° C 91% 1016.8 hPa 0 mm - 0 W/m² -
1787962829 23.33° C 92% 1016.9 hPa 0 mm - 0 W/m² -
1787962226 23.33° C 92% 1017 hPa 0 mm - 0 W/m² -
1787961624 23.33° C 91% 1017.1 hPa 0 mm - 0 W/m² -
1787961021 23.33° C 92% 1017 hPa 0 mm - 0 W/m² -
1787960419 23.33° C 91% 1017 hPa 0 mm - 0 W/m² -
1787959817 23.89° C 91% 1017.2 hPa 0 mm - 0 W/m² -
1787959234 23.89° C 91% 1017 hPa 0 mm - 0 W/m² -
1787958632 23.89° C 91% 1016.9 hPa 0 mm - 0 W/m² -
1787958030 23.89° C 93% 1016.8 hPa 0 mm - 0 W/m² -
1787957427 23.89° C 93% 1016.7 hPa 0 mm - 0 W/m² -
1787956825 24.44° C 94% 1016.7 hPa 0 mm - 0 W/m² -

* Rain latest hour (hover to see other rain measurements)
** Current wind speed in m/s (hover to see current wind gust speed)